Location: Tamazert
(32.6352°N, 5.2072°W)
Time: 02:24:28
(UTC+00:00)

Tiros 1 despin weight - Pass Details

Date: 05 October 2022
Orbit: 590 x 637 km, 48.2° (Epoch: 30 November)

Event Time Altitude Azimuth Distance (km) Brightness Sun altitude
Rises 15:38:53 0° 260° (W) 2,823 ? 27.8°
Reaches altitude 10° 15:41:25 10° 273° (W) 1,930 ? 27.3°
Maximum altitude 15:45:13 28° 332° (NNW) 1,151 ? 26.6°
Drops below altitude 10° 15:49:05 10° 31° (NNE) 1,960 ? 25.8°
Sets 15:51:41 0° 44° (NE) 2,876 ? 25.3°
